Location: Gryfice
(53.9133°N, 15.1955°E)
Time: 23:26:20
(UTC+02:00)

ISS - Visible Passes

Search period start: 22 September 2018 00:00
Search period end: 02 October 2018 00:00
Orbit: 403 x 408 km, 51.6° (Epoch: 23 September)

Date Brightness Start Highest point End Pass type
(mag) Time Alt. Az. Time Alt. Az. Time Alt. Az.
23 Sep -1.4 21:11:40 10° SW 21:12:21 14° SSW 21:12:21 14° SSW visible
24 Sep -2.3 20:20:17 10° SSW 20:22:51 21° SSE 20:22:54 21° SSE visible
25 Sep -1.8 19:29:14 10° S 19:31:10 15° SE 19:33:06 10° ESE visible
25 Sep -2.5 21:03:57 10° SW 21:06:00 30° SSW 21:06:00 30° SSW visible
26 Sep -2.9 20:12:18 10° SW 20:15:17 32° SSE 20:16:15 26° ESE visible
26 Sep -1.1 21:48:14 10° WSW 21:48:56 15° WSW 21:48:56 15° WSW visible
27 Sep -2.4 19:20:48 10° SSW 19:23:31 24° SSE 19:26:14 10° E visible
27 Sep -3.2 20:56:23 10° WSW 20:59:06 46° SSW 20:59:06 46° SSW visible
28 Sep -3.3 20:04:35 10° WSW 20:07:45 45° SSE 20:09:12 26° ESE visible
28 Sep -1.3 21:40:48 10° W 21:41:52 19° W 21:41:52 19° W visible
29 Sep -2.9 19:12:51 10° SW 19:15:54 35° SSE 19:18:58 10° E visible
29 Sep -3.5 20:48:53 10° W 20:51:54 56° SSW 20:51:54 56° SSW visible
30 Sep -3.6 19:56:59 10° WSW 20:00:14 55° S 20:01:54 25° ESE visible
30 Sep -1.4 21:33:20 10° W 21:34:34 20° W 21:34:34 20° W visible
01 Oct -3.5 20:41:22 10° W 20:44:32 54° SSW 20:44:32 54° SSW visible
